�������l�o���
Date,Time,MP-1(��Sv/h),MP-2(��Sv/h),MP-3(��Sv/h),MP-4(��Sv/h),MP-5(��Sv/h),MP-6(��Sv/h),MP-7(��Sv/h),MP-8(��Sv/h),����,����(m/s),���J
2023/10/26,00:00,0.531,0.807,0.498,1.014,0.730,0.321,0.575,0.534,�k��,6.7,��
2023/10/26,00:10,0.531,0.807,0.497,1.015,0.729,0.321,0.575,0.533,�k��,6.2,��
2023/10/26,00:20,0.531,0.806,0.498,1.013,0.731,0.322,0.575,0.535,�k��,6.3,��
2023/10/26,00:30,0.531,0.806,0.496,1.014,0.730,0.322,0.574,0.533,�k��,6.2,��
2023/10/26,00:40,0.532,0.806,0.496,1.016,0.728,0.321,0.574,0.535,�k��,6.6,��
2023/10/26,00:50,0.534,0.806,0.498,1.012,0.730,0.322,0.574,0.535,�k��,6.4,��
2023/10/26,01:00,0.532,0.805,0.498,1.014,0.730,0.321,0.575,0.534,�k��,6.4,��
2023/10/26,01:10,0.532,0.807,0.498,1.015,0.730,0.321,0.576,0.533,�k��,7.1,��
2023/10/26,01:20,0.532,0.808,0.496,1.013,0.730,0.322,0.574,0.534,�k��,7.2,��
2023/10/26,01:30,0.531,0.806,0.498,1.014,0.729,0.322,0.576,0.534,�k��,6.5,��
2023/10/26,01:40,0.533,0.809,0.498,1.016,0.728,0.322,0.575,0.534,�k��,6.6,��
2023/10/26,01:50,0.532,0.807,0.498,1.016,0.729,0.322,0.576,0.533,�k��,7.3,��
2023/10/26,02:00,0.533,0.806,0.499,1.016,0.731,0.322,0.576,0.533,�k��,7.4,��
2023/10/26,02:10,0.532,0.806,0.498,1.015,0.728,0.322,0.575,0.536,�k��,7.1,��
2023/10/26,02:20,0.532,0.807,0.497,1.016,0.727,0.320,0.577,0.536,�k��,7.0,��
2023/10/26,02:30,0.533,0.805,0.498,1.014,0.728,0.322,0.575,0.534,�k��,5.4,��
2023/10/26,02:40,0.532,0.807,0.499,1.016,0.728,0.320,0.575,0.534,�k��,6.6,��
2023/10/26,02:50,0.532,0.805,0.497,1.015,0.729,0.322,0.578,0.535,�k��,5.9,��
2023/10/26,03:00,0.531,0.806,0.498,1.015,0.730,0.322,0.577,0.536,�k��,5.6,��
2023/10/26,03:10,0.533,0.807,0.498,1.015,0.728,0.322,0.576,0.535,�k��,6.2,��
2023/10/26,03:20,0.532,0.806,0.499,1.014,0.729,0.322,0.576,0.533,�k��,5.9,��
2023/10/26,03:30,0.532,0.808,0.497,1.015,0.731,0.322,0.575,0.534,�k��,6.1,��
2023/10/26,03:40,0.533,0.805,0.497,1.016,0.730,0.321,0.575,0.534,�k��,6.7,��
2023/10/26,03:50,0.532,0.807,0.498,1.016,0.728,0.322,0.576,0.535,�k��,6.7,��
2023/10/26,04:00,0.531,0.807,0.498,1.015,0.729,0.322,0.577,0.535,�k��,6.4,��
2023/10/26,04:10,0.532,0.806,0.496,1.013,0.726,0.321,0.576,0.534,�k��,6.6,��
2023/10/26,04:20,0.532,0.805,0.497,1.014,0.729,0.322,0.576,0.534,�k��,6.7,��
2023/10/26,04:30,0.531,0.807,0.496,1.015,0.728,0.321,0.574,0.535,�k��,6.5,��
2023/10/26,04:40,0.532,0.806,0.498,1.016,0.726,0.321,0.576,0.534,�k��,6.6,��
2023/10/26,04:50,0.530,0.808,0.497,1.016,0.728,0.321,0.575,0.536,�k��,7.9,��
2023/10/26,05:00,0.533,0.803,0.498,1.016,0.726,0.322,0.575,0.535,�k��,8.0,��
2023/10/26,05:10,0.531,0.804,0.497,1.014,0.728,0.321,0.577,0.536,�k��,7.5,��
2023/10/26,05:20,0.532,0.806,0.497,1.014,0.727,0.322,0.577,0.534,�k��,8.2,��
2023/10/26,05:30,0.532,0.807,0.496,1.011,0.729,0.321,0.576,0.533,�k��,8.1,��
2023/10/26,05:40,0.531,0.804,0.497,1.012,0.730,0.322,0.577,0.535,�k��,8.2,��
2023/10/26,05:50,0.530,0.806,0.499,1.015,0.730,0.321,0.576,0.534,�k��,8.2,��
2023/10/26,06:00,0.531,0.806,0.496,1.015,0.729,0.321,0.576,0.535,�k��,8.0,��
2023/10/26,06:10,0.531,0.806,0.495,1.014,0.728,0.322,0.576,0.533,�k��,8.3,��
2023/10/26,06:20,0.531,0.804,0.497,1.016,0.727,0.322,0.578,0.534,�k��,7.1,��
2023/10/26,06:30,0.532,0.805,0.496,1.013,0.728,0.320,0.575,0.533,�k��,8.0,��
2023/10/26,06:40,0.529,0.806,0.497,1.016,0.729,0.321,0.577,0.535,�k��,7.2,��
2023/10/26,06:50,0.530,0.805,0.498,1.016,0.728,0.321,0.576,0.535,�k��,6.9,��
2023/10/26,07:00,0.532,0.806,0.497,1.015,0.728,0.322,0.575,0.535,�k��,6.2,��
2023/10/26,07:10,0.532,0.807,0.497,1.014,0.728,0.321,0.576,0.535,�k��,7.0,��
2023/10/26,07:20,0.530,0.805,0.496,1.015,0.728,0.321,0.576,0.535,�k��,5.8,��
2023/10/26,07:30,0.531,0.807,0.499,1.017,0.727,0.321,0.575,0.535,�k��,5.4,��
2023/10/26,07:40,0.531,0.806,0.497,1.015,0.730,0.321,0.575,0.535,�k��,4.5,��
2023/10/26,07:50,0.533,0.806,0.497,1.016,0.730,0.321,0.577,0.535,�k��,4.0,��
2023/10/26,08:00,0.532,0.805,0.498,1.015,0.729,0.321,0.576,0.535,�k��,4.5,��
2023/10/26,08:10,0.531,0.805,0.499,1.015,0.728,0.322,0.576,0.535,�k��,5.1,��
2023/10/26,08:20,0.531,0.804,0.496,1.014,0.729,0.321,0.575,0.536,�k��,5.4,��
2023/10/26,08:30,0.530,0.804,0.498,1.015,0.730,0.321,0.574,0.534,�k�k��,3.9,��
2023/10/26,08:40,0.531,0.802,0.498,1.016,0.731,0.321,0.574,0.535,�k�k��,3.7,��
2023/10/26,08:50,0.531,0.805,0.498,1.015,0.731,0.322,0.575,0.537,�k�k��,3.4,��
2023/10/26,09:00,0.531,0.804,0.498,1.016,0.730,0.321,0.573,0.537,�k,3.7,��
2023/10/26,09:10,0.531,0.804,0.498,1.015,0.730,0.322,0.575,0.536,�k�k��,4.7,��
2023/10/26,09:20,0.530,0.805,0.498,1.016,0.729,0.322,0.574,0.537,�k�k��,5.0,��
2023/10/26,09:30,0.530,0.804,0.498,1.014,0.727,0.322,0.575,0.535,�k�k��,6.3,��
2023/10/26,09:40,0.532,0.803,0.496,1.014,0.728,0.321,0.577,0.535,�k,6.4,��
2023/10/26,09:50,0.533,0.803,0.498,1.015,0.729,0.321,0.578,0.536,�k�k��,8.1,��
2023/10/26,10:00,0.531,0.801,0.498,1.017,0.728,0.320,0.575,0.535,�k�k��,7.2,��
2023/10/26,10:10,0.531,0.805,0.496,1.014,0.729,0.320,0.575,0.534,�k�k��,7.3,��
2023/10/26,10:20,0.530,0.807,0.497,1.016,0.729,0.321,0.575,0.534,�k,6.3,��
2023/10/26,10:30,0.533,0.804,0.496,1.016,0.730,0.320,0.576,0.534,�k�k��,6.8,��
2023/10/26,10:40,0.532,0.806,0.492,1.017,0.730,0.321,0.576,0.533,�k,6.8,��
2023/10/26,10:50,0.532,0.804,0.496,1.017,0.729,0.320,0.574,0.534,�k�k��,8.4,��
2023/10/26,11:00,0.533,0.805,0.498,1.015,0.729,0.319,0.577,0.533,�k�k��,7.3,��
2023/10/26,11:10,0.531,0.805,0.499,1.014,0.731,0.321,0.575,0.534,�k,8.7,��
2023/10/26,11:20,0.532,0.804,0.498,1.019,0.725,0.320,0.575,0.535,�k�k��,8.5,��
2023/10/26,11:30,0.533,0.807,0.497,1.016,0.730,0.322,0.575,0.534,�k�k��,8.5,��
2023/10/26,11:40,0.533,0.805,0.499,1.018,0.730,0.320,0.575,0.534,�k�k��,9.0,��
2023/10/26,11:50,0.533,0.808,0.500,1.018,0.733,0.321,0.575,0.533,�k�k��,9.3,��
2023/10/26,12:00,0.534,0.807,0.498,1.014,0.730,0.321,0.575,0.534,�k�k��,8.5,��
2023/10/26,12:10,0.532,0.806,0.498,1.017,0.733,0.320,0.575,0.532,�k�k��,8.6,��
2023/10/26,12:20,0.532,0.807,0.498,1.018,0.730,0.321,0.575,0.533,�k�k��,8.5,��
2023/10/26,12:30,0.533,0.806,0.500,1.018,0.732,0.322,0.574,0.535,�k�k��,9.9,��
2023/10/26,12:40,0.534,0.805,0.499,1.017,0.731,0.322,0.575,0.534,�k,8.5,��
2023/10/26,12:50,0.533,0.809,0.497,1.017,0.732,0.320,0.574,0.534,�k,8.9,��
2023/10/26,13:00,0.533,0.807,0.499,1.017,0.732,0.321,0.575,0.534,�k,8.7,��
2023/10/26,13:10,0.531,0.807,0.499,1.016,0.733,0.321,0.573,0.533,�k�k��,9.5,��
2023/10/26,13:20,0.532,0.809,0.498,1.018,0.732,0.321,0.574,0.535,�k�k��,8.5,��
2023/10/26,13:30,0.533,0.807,0.499,1.016,0.734,0.320,0.576,0.534,�k�k��,7.9,��
2023/10/26,13:40,0.534,0.806,0.498,1.018,0.734,0.320,0.575,0.533,�k�k��,8.3,��
2023/10/26,13:50,0.534,0.808,0.498,1.017,0.735,0.320,0.574,0.534,�k�k��,7.1,��
2023/10/26,14:00,0.532,0.808,0.498,1.018,0.732,0.320,0.575,0.535,�k�k��,6.9,��
2023/10/26,14:10,0.535,0.807,0.497,1.019,0.734,0.321,0.574,0.535,�k�k��,7.5,��
2023/10/26,14:20,0.533,0.806,0.497,1.019,0.734,0.319,0.574,0.535,�k�k��,7.0,��
2023/10/26,14:30,0.533,0.805,0.498,1.018,0.733,0.320,0.574,0.536,�k�k��,6.8,��
2023/10/26,14:40,0.532,0.807,0.498,1.017,0.732,0.320,0.575,0.534,�k�k��,6.6,��
2023/10/26,14:50,0.532,0.806,0.500,1.017,0.734,0.320,0.576,0.533,�k�k��,6.6,��
2023/10/26,15:00,0.533,0.807,0.499,1.017,0.733,0.322,0.575,0.534,�k,6.3,��
2023/10/26,15:10,0.533,0.808,0.499,1.017,0.733,0.319,0.575,0.533,�k�k��,5.8,��
2023/10/26,15:20,0.533,0.806,0.499,1.015,0.733,0.319,0.574,0.534,�k�k��,5.4,��
2023/10/26,15:30,0.533,0.805,0.498,1.015,0.734,0.320,0.574,0.534,�k�k��,5.7,��
2023/10/26,15:40,0.532,0.805,0.501,1.016,0.733,0.320,0.574,0.533,�k�k��,4.6,��
2023/10/26,15:50,0.533,0.807,0.499,1.017,0.732,0.320,0.573,0.533,�k,4.5,��
2023/10/26,16:00,0.533,0.807,0.500,1.013,0.733,0.320,0.576,0.535,�k,4.0,��
2023/10/26,16:10,0.533,0.807,0.499,1.016,0.733,0.321,0.575,0.535,�k�k��,3.4,��
2023/10/26,16:20,0.533,0.806,0.499,1.014,0.734,0.322,0.576,0.534,�k,3.9,��
2023/10/26,16:30,0.533,0.807,0.500,1.015,0.732,0.321,0.575,0.535,�k,3.6,��
2023/10/26,16:40,0.532,0.808,0.498,1.017,0.734,0.321,0.576,0.536,�k,3.6,��
2023/10/26,16:50,0.531,0.809,0.498,1.016,0.732,0.321,0.576,0.536,�k,2.6,��
2023/10/26,17:00,0.532,0.809,0.496,1.018,0.734,0.322,0.576,0.535,�k�k��,2.3,��
2023/10/26,17:10,0.531,0.811,0.498,1.019,0.735,0.322,0.576,0.536,�k,2.3,��
2023/10/26,17:20,0.533,0.809,0.501,1.017,0.737,0.321,0.576,0.535,�k�k��,2.3,��
2023/10/26,17:30,0.533,0.812,0.500,1.017,0.736,0.322,0.576,0.535,�k�k��,2.3,��
2023/10/26,17:40,0.533,0.811,0.499,1.020,0.736,0.322,0.577,0.536,�k�k��,2.6,��
2023/10/26,17:50,0.534,0.811,0.501,1.020,0.736,0.322,0.576,0.536,�k��,2.8,��
2023/10/26,18:00,0.533,0.811,0.499,1.018,0.735,0.321,0.578,0.534,�k�k��,2.5,��
2023/10/26,18:10,0.534,0.811,0.500,1.018,0.738,0.322,0.577,0.536,�k��,2.6,��
2023/10/26,18:20,0.535,0.810,0.500,1.018,0.736,0.323,0.577,0.535,�k��,3.3,��
2023/10/26,18:30,0.534,0.811,0.501,1.017,0.736,0.322,0.575,0.534,�k��,3.4,��
2023/10/26,18:40,0.535,0.812,0.500,1.018,0.735,0.321,0.577,0.535,�k�k��,3.2,��
2023/10/26,18:50,0.536,0.809,0.499,1.018,0.735,0.324,0.575,0.534,�k��,2.8,��
2023/10/26,19:00,0.535,0.809,0.500,1.017,0.736,0.322,0.576,0.536,�k�k��,2.6,��
2023/10/26,19:10,0.534,0.812,0.498,1.018,0.737,0.323,0.576,0.536,�k��,3.3,��
2023/10/26,19:20,0.533,0.809,0.499,1.019,0.736,0.322,0.574,0.535,�k��,3.6,��
2023/10/26,19:30,0.536,0.811,0.500,1.019,0.736,0.321,0.575,0.534,�k��,4.0,��
2023/10/26,19:40,0.534,0.809,0.501,1.019,0.736,0.321,0.576,0.534,�k��,3.6,��
2023/10/26,19:50,0.535,0.810,0.500,1.018,0.734,0.321,0.575,0.534,�k��,3.5,��
2023/10/26,20:00,0.532,0.810,0.499,1.018,0.735,0.323,0.574,0.536,�k��,3.4,��
2023/10/26,20:10,0.536,0.808,0.499,1.019,0.734,0.322,0.577,0.536,�k��,2.9,��
2023/10/26,20:20,0.535,0.810,0.500,1.018,0.737,0.322,0.577,0.536,���k��,3.4,��
2023/10/26,20:30,0.535,0.808,0.499,1.019,0.737,0.322,0.576,0.536,���k��,3.5,��
2023/10/26,20:40,0.536,0.810,0.500,1.017,0.737,0.323,0.576,0.535,���k��,2.6,��
2023/10/26,20:50,0.534,0.811,0.499,1.020,0.734,0.322,0.576,0.535,���k��,3.1,��
2023/10/26,21:00,0.535,0.810,0.499,1.018,0.735,0.321,0.576,0.535,�k��,4.3,��
2023/10/26,21:10,0.534,0.809,0.500,1.017,0.736,0.323,0.576,0.537,�k��,4.4,��
2023/10/26,21:20,0.535,0.811,0.499,1.023,0.735,0.322,0.577,0.534,�k��,4.8,��
2023/10/26,21:30,0.534,0.809,0.499,1.018,0.734,0.323,0.574,0.535,�k��,4.7,��
2023/10/26,21:40,0.534,0.810,0.499,1.017,0.733,0.322,0.577,0.537,�k��,4.5,��
2023/10/26,21:50,0.534,0.810,0.500,1.018,0.735,0.321,0.578,0.536,�k��,4.5,��
2023/10/26,22:00,0.535,0.810,0.498,1.017,0.733,0.320,0.575,0.536,�k��,4.4,��
2023/10/26,22:10,0.535,0.810,0.499,1.019,0.735,0.323,0.576,0.535,�k�k��,4.4,��
2023/10/26,22:20,0.533,0.810,0.501,1.019,0.735,0.322,0.575,0.535,�k�k��,3.6,��
2023/10/26,22:30,0.535,0.810,0.499,1.018,0.734,0.322,0.575,0.535,�k�k��,3.8,��
2023/10/26,22:40,0.535,0.809,0.499,1.020,0.736,0.322,0.576,0.536,�k��,4.1,��
2023/10/26,22:50,0.535,0.810,0.500,1.018,0.735,0.323,0.575,0.536,�k��,4.6,��
2023/10/26,23:00,0.536,0.809,0.499,1.018,0.736,0.321,0.575,0.535,�k��,4.0,��
2023/10/26,23:10,0.534,0.810,0.497,1.018,0.734,0.323,0.577,0.535,�k��,4.2,��
2023/10/26,23:20,0.535,0.810,0.499,1.020,0.735,0.322,0.576,0.535,�k��,3.8,��
2023/10/26,23:30,0.535,0.810,0.499,1.021,0.736,0.322,0.575,0.537,���k��,3.7,��
2023/10/26,23:40,0.533,0.810,0.500,1.018,0.735,0.322,0.575,0.536,���k��,3.3,��
2023/10/26,23:50,0.533,0.808,0.499,1.019,0.733,0.322,0.575,0.534,���k��,3.4,��
